Monistrol de Calders





Hora UTC 16:50
Temperatura 22.9 ºC
Humitat 61.0 %
Pressió 1024.2 hPa
Pluja 0.0 mm
Velocitat vent 3.2 km/h
Direcció vent S

Dades diàries 2020-05-25



Hora UTC (hivern +1h; estiu +2h)
Temperatura (ºC) Humitat (%) Pressió (hPa) Velocitat vent (km/h) Precipitació (mm)
Hora UTC Aire Humitat Pressió Vel. Dir. Vel. Max Dir. Intent. màx 5 min.
00:05 17.4 83.0 1026.8 0.0 SSW 0.0 0.0
00:10 17.4 83.0 1026.8 0.0 SSW 0.0 0.0
00:15 17.4 83.0 1026.8 0.0 SSW 0.0 0.0
00:20 17.4 83.0 1026.7 0.0 SSW 0.0 0.0
00:25 17.4 84.0 1026.7 0.0 SSW 0.0 0.0
00:30 17.4 84.0 1026.6 0.0 SSW 0.0 0.0
00:35 17.3 84.0 1026.6 0.0 SSW 0.0 0.0
00:40 17.3 84.0 1026.6 0.0 SSW 0.0 0.0
00:45 17.3 84.0 1026.6 0.0 SSW 0.0 0.0
00:50 17.2 84.0 1026.6 0.0 SSW 0.0 0.0
00:55 17.2 84.0 1026.6 0.0 SSW 0.0 0.0
01:00 17.2 84.0 1026.6 0.0 SSW 0.0 0.0
01:05 17.2 84.0 1026.5 0.0 SSW 0.0 0.0
01:10 17.2 84.0 1026.4 0.0 SSW 0.0 0.0
01:15 17.1 84.0 1026.4 0.0 SSW 0.0 0.0
01:20 17.1 84.0 1026.3 0.0 SSW 0.0 0.0
01:25 17.1 84.0 1026.3 0.0 SSW 0.0 0.0
01:30 17.1 84.0 1026.3 0.0 SSW 0.0 0.0
01:35 17.1 84.0 1026.2 0.0 SSW 0.0 0.0
01:40 17.1 84.0 1026.3 0.0 SSW 0.0 0.0
01:45 17.1 84.0 1026.2 0.0 SSW 0.0 0.0
01:50 17.0 85.0 1026.2 0.0 SSW 0.0 0.0
01:55 17.0 85.0 1026.1 0.0 SSW 1.6 0.0
02:00 17.0 85.0 1026.1 0.0 SSW 1.6 0.0
02:05 17.0 85.0 1026.2 0.0 SSW 0.0 0.0
02:10 17.0 85.0 1026.1 0.0 SSW 0.0 0.0
02:15 17.0 85.0 1026.1 0.0 SSW 0.0 0.0
02:20 16.9 85.0 1026.0 0.0 SSW 0.0 0.0
02:25 16.9 85.0 1026.0 0.0 SSW 0.0 0.0
02:30 16.9 85.0 1025.9 0.0 SSW 0.0 0.0
02:35 16.8 85.0 1025.9 0.0 SSW 0.0 0.0
02:40 16.8 85.0 1025.9 0.0 SSW 0.0 0.0
02:45 16.8 85.0 1025.9 0.0 SSW 0.0 0.0
02:50 16.8 85.0 1025.8 0.0 SSW 0.0 0.0
02:55 16.8 85.0 1025.8 0.0 SSW 0.0 0.0
03:00 16.8 85.0 1025.8 0.0 SSW 0.0 0.0
03:05 16.7 85.0 1025.8 0.0 SSW 0.0 0.0
03:10 16.7 85.0 1025.9 0.0 SSW 0.0 0.0
03:15 16.7 86.0 1025.9 0.0 SSW 0.0 0.0
03:20 16.7 85.0 1025.9 0.0 SSW 0.0 0.0
03:25 16.7 86.0 1026.0 0.0 SSW 0.0 0.0
03:30 16.6 86.0 1026.0 0.0 SSW 0.0 0.0
03:35 16.6 86.0 1025.9 0.0 SSW 0.0 0.0
03:40 16.6 86.0 1025.9 0.0 SSW 0.0 0.0
03:45 16.5 86.0 1026.0 0.0 SSW 0.0 0.0
03:50 16.4 86.0 1026.0 0.0 SSW 1.6 0.0
03:55 16.4 86.0 1025.9 3.2 SSW 4.8 0.0
04:00 16.3 86.0 1026.0 0.0 S 4.8 0.0
04:05 16.2 86.0 1026.0 6.4 S 6.4 0.0
04:10 16.1 86.0 1026.0 1.6 SSE 6.4 0.0
04:15 16.1 86.0 1026.0 3.2 S 6.4 0.0
04:20 16.0 86.0 1026.0 1.6 SSE 6.4 0.0
04:25 15.9 86.0 1026.0 0.0 SE 4.8 0.0
04:30 15.8 86.0 1026.1 3.2 S 4.8 0.0
04:35 15.8 87.0 1026.1 0.0 S 6.4 0.0
04:40 15.8 86.0 1026.1 1.6 S 4.8 0.0
04:45 15.7 86.0 1026.1 1.6 SSE 3.2 0.0
04:50 15.7 86.0 1026.2 1.6 S 4.8 0.0
04:55 15.7 86.0 1026.3 0.0 S 4.8 0.0
05:00 15.7 86.0 1026.3 0.0 S 3.2 0.0
05:05 15.8 87.0 1026.3 0.0 S 1.6 0.0
05:10 15.8 86.0 1026.4 3.2 S 3.2 0.0
05:15 15.8 86.0 1026.4 0.0 S 3.2 0.0
05:20 15.8 86.0 1026.5 0.0 S 3.2 0.0
05:25 15.9 86.0 1026.6 0.0 S 3.2 0.0
05:30 16.0 86.0 1026.6 1.6 S 3.2 0.0
05:35 16.0 86.0 1026.6 0.0 S 3.2 0.0
05:40 16.1 86.0 1026.6 0.0 S 3.2 0.0
05:45 16.2 86.0 1026.6 0.0 S 0.0 0.0
05:50 16.3 86.0 1026.6 0.0 S 3.2 0.0
05:55 16.3 86.0 1026.7 1.6 S 3.2 0.0
06:00 16.3 85.0 1026.7 0.0 S 3.2 0.0
06:05 16.4 86.0 1026.8 1.6 S 3.2 0.0
06:10 16.4 85.0 1026.8 0.0 S 3.2 0.0
06:15 16.6 86.0 1026.8 0.0 S 3.2 0.0
06:20 16.6 85.0 1026.9 0.0 S 3.2 0.0
06:25 16.7 85.0 1026.8 0.0 S 1.6 0.0
06:30 16.7 85.0 1026.7 0.0 S 3.2 0.0
06:35 16.8 85.0 1026.6 0.0 S 3.2 0.0
06:40 16.9 85.0 1026.5 0.0 S 1.6 0.0
06:45 17.1 85.0 1026.5 1.6 S 3.2 0.0
06:50 17.2 84.0 1026.4 1.6 SSE 9.7 0.0
06:55 17.3 82.0 1026.5 3.2 S 8.0 0.0
07:00 17.6 82.0 1026.6 3.2 S 8.0 0.0
07:05 17.8 81.0 1026.6 9.7 SSE 9.7 0.0
07:10 18.1 80.0 1026.6 4.8 S 12.9 0.0
07:15 18.2 79.0 1026.6 6.4 SSE 12.9 0.0
07:20 18.4 79.0 1026.5 9.7 E 12.9 0.0
07:25 18.7 78.0 1026.4 6.4 SSE 14.5 0.0
07:30 18.9 77.0 1026.3 11.3 ESE 14.5 0.0
07:35 19.2 74.0 1026.3 12.9 SE 16.1 0.0
07:40 19.2 75.0 1026.4 11.3 S 16.1 0.0
07:45 19.3 73.0 1026.4 3.2 SE 14.5 0.0
07:50 19.4 73.0 1026.3 12.9 E 16.1 0.0
07:55 19.2 73.0 1026.4 14.5 E 19.3 0.0
08:00 19.2 73.0 1026.4 6.4 E 19.3 0.0
08:05 19.3 72.0 1026.5 8.0 E 16.1 0.0
08:10 19.4 70.0 1026.4 6.4 ENE 12.9 0.0
08:15 19.7 69.0 1026.4 8.0 E 14.5 0.0
08:20 19.9 68.0 1026.4 3.2 ENE 14.5 0.0
08:25 20.2 68.0 1026.4 4.8 E 12.9 0.0
08:30 20.1 67.0 1026.4 6.4 E 14.5 0.0
08:35 20.1 68.0 1026.4 4.8 E 14.5 0.0
08:40 20.2 66.0 1026.4 3.2 E 11.3 0.0
08:45 20.3 65.0 1026.4 11.3 E 12.9 0.0
08:50 20.3 66.0 1026.4 6.4 E 14.5 0.0
08:55 20.6 65.0 1026.5 0.0 SE 14.5 0.0
09:00 20.5 65.0 1026.4 6.4 E 14.5 0.0
09:05 20.7 66.0 1026.5 6.4 E 14.5 0.0
09:10 20.7 66.0 1026.6 1.6 SE 14.5 0.0
09:15 20.7 66.0 1026.6 11.3 E 14.5 0.0
09:20 20.6 66.0 1026.7 8.0 E 14.5 0.0
09:25 20.5 66.0 1026.7 0.0 S 9.7 0.0
09:30 20.6 67.0 1026.8 0.0 S 9.7 0.0
09:35 20.7 67.0 1026.8 1.6 S 3.2 0.0
09:40 20.8 65.0 1026.8 1.6 WNW 3.2 0.0
09:45 20.9 64.0 1026.8 0.0 WNW 6.4 0.0
09:50 20.9 63.0 1026.8 0.0 WSW 6.4 0.0
09:55 21.1 66.0 1026.8 0.0 WSW 3.2 0.0
10:00 21.1 65.0 1026.8 0.0 WSW 4.8 0.0
10:05 21.0 64.0 1026.9 3.2 WSW 11.3 0.0
10:10 20.9 64.0 1026.8 3.2 WNW 16.1 0.0
10:15 20.9 65.0 1026.8 8.0 WSW 16.1 0.0
10:20 21.0 64.0 1026.8 0.0 WSW 12.9 0.0
10:25 21.2 63.0 1026.7 6.4 WSW 14.5 0.0
10:30 21.3 62.0 1026.7 1.6 WNW 14.5 0.0
10:35 21.4 62.0 1026.7 3.2 SSW 8.0 0.0
10:40 21.7 60.0 1026.6 0.0 WNW 6.4 0.0
10:45 22.0 60.0 1026.4 0.0 WNW 8.0 0.0
10:50 22.2 61.0 1026.4 0.0 W 8.0 0.0
10:55 22.3 59.0 1026.3 6.4 SSW 11.3 0.0
11:00 22.3 58.0 1026.4 4.8 ENE 11.3 0.0
11:05 22.7 57.0 1026.3 0.0 WSW 8.0 0.0
11:10 22.9 57.0 1026.2 0.0 WSW 6.4 0.0
11:15 23.3 59.0 1026.2 0.0 W 4.8 0.0
11:20 23.6 56.0 1026.2 0.0 WNW 4.8 0.0
11:25 23.4 55.0 1026.1 0.0 WNW 8.0 0.0
11:30 23.3 56.0 1026.1 3.2 WNW 8.0 0.0
11:35 23.6 56.0 1026.1 0.0 ENE 8.0 0.0
11:40 23.7 53.0 1026.1 1.6 ESE 11.3 0.0
11:45 24.0 51.0 1026.1 0.0 ESE 11.3 0.0
11:50 24.2 52.0 1026.1 3.2 ESE 3.2 0.0
11:55 24.1 52.0 1026.0 0.0 NE 6.4 0.0
12:00 23.9 53.0 1026.0 0.0 NE 6.4 0.0
12:05 23.9 52.0 1026.0 0.0 NE 4.8 0.0
12:10 24.0 52.0 1025.9 1.6 ENE 4.8 0.0
12:15 23.9 54.0 1025.8 0.0 ENE 4.8 0.0
12:20 24.0 53.0 1025.8 0.0 ENE 3.2 0.0
12:25 24.1 56.0 1025.8 0.0 WNW 4.8 0.0
12:30 24.4 54.0 1025.6 1.6 WNW 4.8 0.0
12:35 24.8 53.0 1025.6 0.0 S 6.4 0.0
12:40 25.1 52.0 1025.5 1.6 WNW 6.4 0.0
12:45 24.7 51.0 1025.5 0.0 WSW 6.4 0.0
12:50 24.2 52.0 1025.5 0.0 S 3.2 0.0
12:55 23.9 53.0 1025.4 0.0 SSE 8.0 0.0
13:00 23.9 55.0 1025.4 6.4 SSE 6.4 0.0
13:05 24.0 54.0 1025.4 3.2 S 6.4 0.0
13:10 24.0 54.0 1025.3 1.6 S 6.4 0.0
13:15 24.4 55.0 1025.2 0.0 S 3.2 0.0
13:20 24.7 53.0 1025.2 0.0 S 3.2 0.0
13:25 24.6 52.0 1025.2 0.0 SE 6.4 0.0
13:30 24.3 56.0 1025.2 4.8 E 8.0 0.0
13:35 24.0 57.0 1025.1 3.2 E 12.9 0.0
13:40 23.6 57.0 1025.1 3.2 E 12.9 0.0
13:45 23.4 59.0 1025.1 4.8 S 11.3 0.0
13:50 23.4 59.0 1025.1 3.2 S 11.3 0.0
13:55 23.3 60.0 1025.1 1.6 S 6.4 0.0
14:00 23.4 61.0 1025.1 0.0 WNW 3.2 0.0
14:05 23.4 59.0 1025.1 6.4 E 8.0 0.0
14:10 23.2 60.0 1025.1 6.4 ESE 11.3 0.0
14:15 23.1 60.0 1025.1 3.2 E 11.3 0.0
14:20 23.0 60.0 1025.0 0.0 SE 8.0 0.0
14:25 23.0 60.0 1025.1 3.2 E 11.3 0.0
14:30 22.8 61.0 1025.0 11.3 E 12.9 0.0
14:35 22.7 61.0 1025.0 11.3 E 14.5 0.0
14:40 22.7 60.0 1024.9 3.2 E 14.5 0.0
14:45 22.7 61.0 1024.8 11.3 E 12.9 0.0
14:50 22.8 60.0 1024.8 3.2 SSE 11.3 0.0
14:55 23.1 59.0 1024.8 8.0 S 11.3 0.0
15:00 23.2 59.0 1024.8 3.2 S 11.3 0.0
15:05 23.1 59.0 1024.8 6.4 SSE 12.9 0.0
15:10 23.1 60.0 1024.8 6.4 S 14.5 0.0
15:15 22.9 60.0 1024.8 8.0 SSE 19.3 0.0
15:20 22.8 61.0 1024.8 8.0 SE 16.1 0.0
15:25 22.8 61.0 1024.8 6.4 S 16.1 0.0
15:30 22.7 61.0 1024.8 11.3 SSE 16.1 0.0
15:35 22.6 62.0 1024.8 0.0 ESE 16.1 0.0
15:40 22.8 61.0 1024.7 6.4 SE 16.1 0.0
15:45 22.9 61.0 1024.7 4.8 SE 16.1 0.0
15:50 23.0 60.0 1024.7 11.3 S 11.3 0.0
15:55 23.1 61.0 1024.7 3.2 SSW 14.5 0.0
16:00 23.2 60.0 1024.6 4.8 SSE 16.1 0.0
16:05 23.2 60.0 1024.6 3.2 SSW 16.1 0.0
16:10 23.4 60.0 1024.5 6.4 SE 11.3 0.0
16:15 23.5 60.0 1024.5 3.2 SSE 12.9 0.0
16:20 23.3 60.0 1024.4 8.0 E 14.5 0.0
16:25 23.2 60.0 1024.3 11.3 SSE 19.3 0.0
16:30 23.1 60.0 1024.3 6.4 SSE 19.3 0.0
16:35 23.0 60.0 1024.2 6.4 S 16.1 0.0
16:40 22.9 61.0 1024.2 3.2 S 16.1 0.0
16:45 22.9 61.0 1024.2 8.0 SSE 11.3 0.0
16:50 22.9 61.0 1024.2 3.2 S 14.5 0.0
Màxima 25.1 87.0 1026.9 14.5 E 19.3 0.0
Mínima 15.7 51.0 1024.2
Total 0.0